Regional Weather Roundup
Issued by NWS

Home | Current Version | Previous Version | Text Only | Print | Product List | Glossary Off
Versions: 1 2 3 4 5 6 7 8 9 10 11 12 13 14 15 16 17 18 19 20 21 22 23 24 25 26 27 28 29 30 31 32 33 34 35 36 37 38 39 40 41 42 43 44 45 46 47 48 49 50

000
ASUS43 KOAX 182210
RWRNE

WEATHER ROUNDUP FOR NEBRASKA
NATIONAL WEATHER SERVICE OMAHA NE
500 PM CDT FRI APR 18 2014

NOTES: SATELLITE DATA IS BEING USED TO AUGMENT CLOUD COVER ABOVE
       12000 FEET.
       "FAIR" INDICATES FEW OR NO CLOUDS BELOW 12,000 FEET WITH NO
       SIGNIFICANT WEATHER AND/OR OBSTRUCTIONS TO VISIBILITY.

  * THESE STATIONS DO NOT REPORT WEATHER SUCH AS RAIN...SNOW OR FOG.

NEZ001>004-019>022-054>056-182300-
NEBRASKA PANHANDLE

CITY           SKY/WX    TMP DP  RH WIND       PRES   REMARKS
SCOTTSBLUFF    PTSUNNY   81  33  17 SW20G28   29.77F
ALLIANCE       CLOUDY    78  33  19 S21G29    29.78F
CHADRON        CLOUDY    80  38  22 S21G30    29.69F
KIMBALL        PTSUNNY   77  20  11 S13G22    29.85F
SIDNEY         MOSUNNY   79  29  16 S13G22    29.86F
$$

NEZ057>060-069>072-079>082-182300-
SOUTHWEST NEBRASKA

CITY           SKY/WX    TMP DP  RH WIND       PRES   REMARKS
NORTH PLATTE   CLOUDY    73  41  31 S24G36    29.89F
IMPERIAL       SUNNY     76  38  25 S26G33    29.88F
LEXINGTON      CLOUDY    71  43  36 S29G35    29.95F
MCCOOK         MOSUNNY   72  42  34 S23G39    29.93F
OGALLALA       MOSUNNY   77  35  22 S20G26    29.86F
$$

NEZ005>010-023>029-035>040-094-182300-
NORTH CENTRAL NEBRASKA

CITY           SKY/WX    TMP DP  RH WIND       PRES   REMARKS
VALENTINE      CLOUDY    73  35  25 S35G43    29.78F
AINSWORTH      CLOUDY    71  40  31 S32G39    29.84F
BROKEN BOW     CLOUDY    68  42  38 S23G39    29.95F
O`NEILL        PTSUNNY   70  36  28 S28G39    29.92F
ORD            CLOUDY    70  41  34 S28G35    29.95F
THEDFORD       CLOUDY    74  37  26 S26G36    29.88F
$$

NEZ041-046>049-061>064-073>077-083>087-182300-
SOUTH CENTRAL NEBRASKA

CITY           SKY/WX    TMP DP  RH WIND       PRES   REMARKS
GRAND ISLAND   PTSUNNY   69  41  36 S28G37    30.01F
AURORA         PTSUNNY   69  42  36 S21G33    30.03F
HASTINGS       PTSUNNY   70  39  32 S21G30    30.01F
HEBRON         MOSUNNY   70  41  34 S17G30    30.07F
HOLDREGE       CLOUDY    70  41  34 S29G36    29.98F
KEARNEY *      CLOUDY    70  43  37 S25G35    29.99F
YORK           MOSUNNY   68  41  37 S21G32    30.05F
$$

NEZ011>018-030>034-042>045-182300-
NORTHEAST NEBRASKA

CITY           SKY/WX    TMP DP  RH WIND       PRES   REMARKS
NORFOLK        SUNNY     70  39  32 S23G38    30.01F
ALBION         MOSUNNY   68  38  33 S26G37    30.01F
BLAIR          SUNNY     68  36  30 S23       30.10F
COLUMBUS *     SUNNY     70  43  37 S22G29    30.05F
FREMONT        SUNNY     70  36  28 SE20G28   30.07F
TEKAMAH        SUNNY     70  36  28 S25G33    30.09F
$$

NEZ050>053-065>068-078-088>093-182300-
SOUTHEAST NEBRASKA

CITY           SKY/WX    TMP DP  RH WIND       PRES   REMARKS
LINCOLN        SUNNY     71  39  31 S23G31    30.08F
OMAHA EPPLEY   MOSUNNY   68  36  30 S21G29    30.11F
BEATRICE       SUNNY     69  39  32 S20G29    30.10F
NEBRASKA CITY  SUNNY     68  38  33 S20       30.14F
PLATTSMOUTH    SUNNY     69  34  27 S17       30.13F
$$

NEZ044-045-051>053-067-182300-
OMAHA AREA

CITY           SKY/WX    TMP DP  RH WIND       PRES   REMARKS
OMAHA EPPLEY   MOSUNNY   68  36  30 S21G29    30.11F
BLAIR          SUNNY     68  36  30 S23       30.10F
FREMONT        SUNNY     70  36  28 SE20G28   30.07F
MILLARD        SUNNY     68  38  33 S14G26    30.10F
OFFUTT AFB     SUNNY     69  39  33 SE16G24   30.11F
PLATTSMOUTH    SUNNY     69  34  27 S17       30.13F
WAHOO          FAIR      71  33  25 S26G33    30.07F
$$



USA.gov is the U.S. government's official web portal to all federal, state and local government web resources and services.